This is the latest recevied weather packets stored in our database for station/object EA7OC-10. If no packets are shown the sender has not sent any weather packets the latest 10 day(s).
| Time | Temp. | Humidity | Pressure | Rain* | Wind** | Luminosity | Snow |
|---|---|---|---|---|---|---|---|
| 1777583079 | 20.56° C | 33% | 1017.6 hPa | - | - | - | - |
| 1777582179 | 21.11° C | 34% | 1017.4 hPa | - | - | - | - |
| 1777581278 | 21.11° C | 33% | 1017.1 hPa | - | - | - | - |
| 1777580378 | 21.67° C | 33% | 1016.9 hPa | - | - | - | - |
| 1777579478 | 21.67° C | 33% | 1016.6 hPa | - | - | - | - |
| 1777578578 | 22.22° C | 34% | 1016.3 hPa | - | - | - | - |
| 1777577678 | 23.33° C | 33% | 1016.2 hPa | - | - | - | - |
| 1777576778 | 23.89° C | 33% | 1016 hPa | - | - | - | - |
| 1777575877 | 24.44° C | 33% | 1015.9 hPa | - | - | - | - |
| 1777574977 | 25° C | 33% | 1015.8 hPa | - | - | - | - |
| 1777574077 | 26.67° C | 33% | 1015.7 hPa | - | - | - | - |
| 1777573177 | 27.22° C | 34% | 1015.7 hPa | - | - | - | - |
| 1777572277 | 27.78° C | 34% | 1015.6 hPa | - | - | - | - |
| 1777571377 | 28.33° C | 34% | 1015.7 hPa | - | - | - | - |
| 1777570477 | 28.33° C | 34% | 1015.7 hPa | - | - | - | - |
| 1777569577 | 29.44° C | 33% | 1015.7 hPa | - | - | - | - |
| 1777568677 | 30° C | 34% | 1015.7 hPa | - | - | - | - |
| 1777567777 | 31.11° C | 34% | 1015.8 hPa | - | - | - | - |
| 1777565992 | 33.89° C | 35% | 1016 hPa | - | - | - | - |
| 1777565091 | 33.33° C | 36% | 1015.8 hPa | - | - | - | - |
| 1777564190 | 32.78° C | 36% | 1015.8 hPa | - | - | - | - |
| 1777563290 | 34.44° C | 34% | 1015.9 hPa | - | - | - | - |
| 1777562390 | 35° C | 35% | 1016 hPa | - | - | - | - |
| 1777561490 | 34.44° C | 37% | 1016.2 hPa | - | - | - | - |
| 1777560589 | 32.22° C | 36% | 1016.2 hPa | - | - | - | - |
* Rain since midnight (hover to see other rain measurements)
** Current wind speed in m/s (hover to see current wind gust speed)